Regional Weather Roundup
Issued by NWS

Home | Current Version | Previous Version | Text Only | Print | Product List | Glossary On
Versions: 1 2 3 4 5 6 7 8 9 10 11 12 13 14 15 16 17 18 19 20 21 22 23 24 25 26 27 28 29 30 31 32 33 34 35 36 37 38 39 40 41 42 43 44 45 46 47 48 49 50
000
ASUS46 KSEW 052310
RWRWA

WASHINGTON REGIONAL WEATHER ROUNDUP
NATIONAL WEATHER SERVICE SEATTLE WA
300 PM PST THU MAR 05 2015

NOTE:"FAIR" INDICATES FEW OR NO CLOUDS BELOW 12,000 FEET WITH NO
SIGNIFICANT WEATHER AND/OR OBSTRUCTIONS TO VISIBILITY.

WAZ505-507>509-060000-
SEATTLE, TACOMA, EVERETT, AND VICINITY

CITY           SKY/WX    TMP DP  RH WIND       PRES   REMARKS
EVERETT        MOSUNNY   54  27  35 NW5       30.36F
BOEING FIELD   MOSUNNY   59  26  28 N5        30.36S
RENTON         MOSUNNY   56  34  43 NW6       30.36R
SEATAC AIRPORT PTSUNNY   56  26  31 W3        30.36S
JBLM-MCCHORD   NOT AVBL
PUYALLUP         N/A     57  25  28 CALM      30.35S
BREMERTON      MOSUNNY   57  32  38 SW3       30.36F
JBLM-FT LEWIS  NOT AVBL
TACOMA NARROWS PTSUNNY   55  31  39 W3        30.36S
$$

WAZ001-503-506-510-514-515-060000-
NORTH INTERIOR

CITY           SKY/WX    TMP DP  RH WIND       PRES   REMARKS
BELLINGHAM     MOSUNNY   52  30  43 SE6       30.37S
FRIDAY HARBOR  PTSUNNY   50  39  66 E5        30.38S
EASTSOUND      PTSUNNY   48  37  66 CALM      30.37R
PORT ANGELES   PTSUNNY   51  39  63 VRB5      30.37S
NAS WHIDBEY    CLOUDY    51  42  71 NW8       30.39R
ARLINGTON      MOSUNNY   57  34  41 CALM      30.37S
BURLINGTON     SUNNY     54  32  43 CALM      30.38S
$$

WAZ020-022-039-040-504-511-512-060000-
SOUTHWEST INTERIOR

CITY           SKY/WX    TMP DP  RH WIND       PRES   REMARKS
SHELTON        PTSUNNY   56  30  37 CALM      30.33F
OLYMPIA        PTSUNNY   58  26  29 CALM      30.35S
CHEHALIS       FAIR      61  32  33 CALM      30.35S
KELSO          MOSUNNY   61  30  31 CALM      30.37F
VANCOUVER      PTSUNNY   60  27  28 CALM      30.34F
SCAPPOOSE, OR  PTSUNNY   58  30  34 CALM      30.34F
PORTLAND, OR   PTSUNNY   59  27  29 CALM      30.34F
$$

WAZ021-516-517-060000-
WASHINGTON COAST

CITY           SKY/WX    TMP DP  RH WIND       PRES   REMARKS
FORKS          PTSUNNY   55  43  63 W8        30.36R
HOQUIAM        PTSUNNY   58  34  40 SW6       30.34S
ASTORIA, OR    PTSUNNY   55  36  48 NW6       30.34S
$$

WAZ019-023-024-040-518-519-060000-
CASCADE MOUNTAINS AND COLUMBIA GORGE

CITY           SKY/WX    TMP DP  RH WIND       PRES   REMARKS
TROUTDALE, OR  PTSUNNY   59  29  31 VRB5      30.33F
THE DALLES, OR MOSUNNY   60  34  37 CALM      30.28F
$$

WAZ026-027-041>044-520-521-060000-
EAST SLOPES

CITY           SKY/WX    TMP DP  RH WIND       PRES   REMARKS
OMAK           MOSUNNY   53  23  31 S8        30.27F
WENATCHEE      PTSUNNY   53  27  36 E7        30.27F
ELLENSBURG     MOSUNNY   59  26  28 VRB3      30.26F
YAKIMA         MOSUNNY   58  28  32 VRB6      30.30R
$$

WAZ028-034-035-060000-
COLUMBIA BASIN

CITY           SKY/WX    TMP DP  RH WIND       PRES   REMARKS
EPHRATA        MOSUNNY   53  25  33 SW3       30.28F
MOSES LAKE     MOSUNNY   52  25  35 CALM      30.30F
PASCO          MOSUNNY   55  23  28 CALM      30.32S
HERMISTON, OR  MOSUNNY   58  26  29 NW5       30.30S
$$

WAZ036>038-060000-
NORTHEAST WASHINGTON

CITY           SKY/WX    TMP DP  RH WIND       PRES   REMARKS
SPOKANE GEIGER PTSUNNY   51  20  29 W5        30.28S
SPOKANE FELTS  SUNNY     53  18  25 NW6       30.29F
FAIRCHILD AFB  NOT AVBL
COEURDALENE,ID MOSUNNY   52  19  28 SE5       30.28S
DEER PARK      SUNNY     49  19  30 SW8       30.29F
$$

WAZ029>033-060000-
SOUTHEAST WASHINGTON

CITY           SKY/WX    TMP DP  RH WIND       PRES   REMARKS
PULLMAN        SUNNY     52  20  28 SW7       30.31S
LEWISTON, ID   MOSUNNY   53  24  32 CALM      30.31S
WALLA WALLA    MOSUNNY   59  24  26 VRB3      30.30S
PENDLETON, OR  MOSUNNY   57  20  23 NW5       30.29S
$$


USA.gov is the U.S. government's official web portal to all federal, state and local government web resources and services.